CW1923 Weather Reports


Display with metric or nautical units.
time (UTC)temp
F
wind
direction
speed
MPH
gust
MPH
rain 1hr
in
rain 24hr
in
rain mn
in
humidity
%
barometer
mb
20260831145330 67 314 4.0 16.0 0.01 0.12 0.11 87 1013.5
20260831144832 66 299 5.0 16.0 0.01 0.12 0.11 88 1013.4
20260831144332 66 292 5.0 14.0 0.01 0.12 0.11 87 1013.4
20260831143831 66 288 5.0 16.0 0.01 0.12 0.11 88 1013.3
20260831143334 66 319 7.0 18.0 0.01 0.12 0.11 87 1013.2
20260831142332 67 282 9.0 20.0 0.01 0.12 0.11 84 1013.2
20260831141331 68 267 7.0 20.0 0.01 0.12 0.10 80 1012.8
20260831140332 69 166 7.0 27.0 0.00 0.11 0.10 78 1012.7
20260831135330 70 310 7.0 25.0 0.00 0.11 0.10 77 1012.6
20260831134332 69 278 9.0 23.0 0.00 0.11 0.10 75 1012.5
20260831133831 69 274 11.0 23.0 0.00 0.11 0.10 75 1012.5
20260831133331 69 330 11.0 27.0 0.00 0.11 0.10 75 1012.4
20260831132832 70 326 11.0 27.0 0.00 0.11 0.10 74 1012.3
20260831132333 71 285 11.0 25.0 0.00 0.11 0.10 73 1012.1
20260831131330 70 249 11.0 25.0 0.00 0.11 0.10 74 1011.9
20260831130830 69 216 11.0 29.0 0.00 0.11 0.10 73 1012.1
20260831130332 70 13 11.0 29.0 0.00 0.11 0.10 73 1012.1
20260831125831 70 302 9.0 25.0 0.00 0.11 0.10 75 1012.0
20260831125330 69 287 11.0 25.0 0.00 0.11 0.10 75 1011.9
20260831124830 68 338 11.0 27.0 0.00 0.11 0.10 75 1012.0
20260831123831 69 316 9.0 27.0 0.00 0.11 0.10 77 1011.9
20260831123331 69 35 9.0 22.0 0.00 0.11 0.10 79 1011.9
20260831122831 69 229 9.0 22.0 0.00 0.11 0.10 82 1011.9
20260831122332 68 296 7.0 20.0 0.00 0.11 0.10 82 1011.7
20260831121831 68 7 9.0 20.0 0.00 0.11 0.10 83 1011.8
20260831121330 67 167 9.0 22.0 0.00 0.11 0.10 83 1011.7
20260831120830 67 330 9.0 22.0 0.01 0.11 0.10 85 1011.6
20260831120330 66 251 9.0 22.0 0.02 0.11 0.10 85 1011.5
20260831115332 66 315 7.0 20.0 0.03 0.11 0.10 86 1011.4
20260831114829 66 257 7.0 18.0 0.03 0.11 0.10 88 1011.5
20260831113830 65 193 5.0 16.0 0.03 0.11 0.10 90 1011.4
20260831113331 65 334 5.0 16.0 0.03 0.11 0.10 90 1011.4
20260831112330 64 147 5.0 16.0 0.03 0.11 0.10 92 1011.4
20260831111832 64 241 4.0 16.0 0.03 0.11 0.10 91 1011.4
20260831111328 63 349 5.0 25.0 0.03 0.11 0.10 90 1011.2
20260831110829 64 301 7.0 25.0 0.02 0.10 0.09 89 1011.5
20260831110330 64 300 7.0 23.0 0.02 0.09 0.09 88 1011.3
20260831105829 64 290 7.0 22.0 0.01 0.09 0.07 87 1011.5
20260831105327 64 327 7.0 22.0 0.00 0.08 0.07 87 1011.3
20260831104829 64 141 9.0 25.0 0.02 0.08 0.07 86 1011.3
20260831104327 64 327 9.0 25.0 0.06 0.08 0.07 86 1011.3
20260831103828 65 305 9.0 22.0 0.06 0.08 0.07 85 1011.3
20260831103326 65 287 9.0 23.0 0.06 0.08 0.07 85 1011.3
20260831101321 64 318 9.0 32.0 0.06 0.08 0.07 89 1011.1
20260831100320 64 264 9.0 23.0 0.06 0.08 0.07 89 1011.0
20260831095822 64 281 7.0 14.0 0.06 0.08 0.07 88 1011.0
20260831094819 65 272 7.0 18.0 0.04 0.06 0.05 83 1010.8
20260831094320 66 328 7.0 20.0 0.00 0.02 0.02 81 1010.7
20260831093320 67 290 7.0 18.0 0.00 0.02 0.02 80 1010.7
20260831091818 67 277 7.0 23.0 0.00 0.02 0.02 79 1010.6
20260831091318 67 299 9.0 23.0 0.00 0.02 0.02 78 1010.7
20260831090817 68 298 7.0 18.0 0.00 0.02 0.02 78 1010.5
20260831085816 67 303 12.0 43.0 0.00 0.02 0.02 78 1010.4
20260831085316 67 288 11.0 43.0 0.00 0.02 0.02 78 1010.3
20260831084819 67 324 9.0 29.0 0.00 0.02 0.02 80 1010.4
20260831084315 67 311 7.0 31.0 0.00 0.02 0.02 81 1010.5
20260831083815 67 110 9.0 31.0 0.00 0.02 0.02 82 1010.3
20260831083316 66 212 11.0 25.0 0.00 0.02 0.02 82 1010.5
20260831081816 66 310 7.0 18.0 0.00 0.02 0.02 83 1010.3
20260831081316 65 318 7.0 20.0 0.00 0.02 0.02 84 1010.3
20260831080816 65 309 7.0 20.0 0.00 0.02 0.02 84 1010.2
20260831080317 65 137 7.0 18.0 0.00 0.02 0.02 84 1010.2
20260831075817 65 228 7.0 18.0 0.00 0.02 0.02 85 1010.2
20260831074310 65 332 5.0 27.0 0.00 0.02 0.02 84 1010.1
20260831073311 65 212 7.0 22.0 0.00 0.02 0.02 84 1010.0
20260831072810 65 301 7.0 22.0 0.00 0.02 0.02 84 1009.9
20260831072309 65 149 5.0 20.0 0.00 0.02 0.02 84 1010.1
20260831071809 65 173 5.0 18.0 0.00 0.02 0.02 84 1010.1
20260831071311 65 327 5.0 18.0 0.00 0.02 0.02 83 1010.0
20260831070304 65 316 9.0 27.0 0.00 0.02 0.02 83 1010.2
20260831065804 65 144 7.0 27.0 0.00 0.02 0.02 83 1010.1
20260831065306 65 255 7.0 18.0 0.00 0.02 0.02 83 1010.1
20260831064806 65 322 5.0 25.0 0.00 0.02 0.02 83 1010.0
20260831063806 65 170 5.0 16.0 0.00 0.02 0.02 83 1010.0
20260831063303 65 99 7.0 16.0 0.00 0.02 0.02 83 1010.0
20260831062805 65 95 7.0 25.0 0.00 0.02 0.02 84 1009.8
20260831062306 65 306 7.0 25.0 0.00 0.02 0.02 84 1010.0
20260831061804 64 273 7.0 22.0 0.00 0.02 0.02 84 1009.9
20260831061304 64 170 7.0 22.0 0.00 0.02 0.02 84 1010.0
20260831060804 64 318 7.0 20.0 0.00 0.02 0.02 85 1010.0
20260831060303 64 297 5.0 16.0 0.00 0.02 0.02 85 1009.9
20260831055804 64 228 5.0 23.0 0.00 0.02 0.02 85 1009.8
20260831054805 63 163 4.0 16.0 0.00 0.02 0.02 86 1009.8
20260831053805 63 98 4.0 20.0 0.00 0.02 0.02 86 1009.8
20260831053304 63 63 4.0 20.0 0.00 0.02 0.02 86 1009.8
20260831052804 63 287 4.0 14.0 0.00 0.02 0.02 86 1009.7
20260831051801 63 113 4.0 20.0 0.00 0.02 0.02 86 1009.8
20260831051259 63 195 4.0 16.0 0.00 0.02 0.02 86 1009.7
20260831050758 63 144 4.0 16.0 0.00 0.02 0.02 86 1009.6
20260831050259 63 332 4.0 12.0 0.00 0.02 0.02 86 1009.7
20260831045754 63 152 4.0 16.0 0.00 0.02 0.02 86 1009.6
20260831045253 63 180 4.0 16.0 0.00 0.02 0.02 86 1009.8
20260831044752 63 208 4.0 20.0 0.00 0.02 0.02 86 1009.7
20260831044247 63 268 4.0 20.0 0.00 0.02 0.02 87 1009.7
20260831043747 63 160 4.0 18.0 0.00 0.02 0.02 87 1009.7
20260831043244 63 191 5.0 18.0 0.00 0.02 0.02 87 1009.7
20260831042744 63 332 5.0 18.0 0.00 0.02 0.02 87 1009.7
20260831042245 63 149 4.0 22.0 0.00 0.02 0.02 87 1009.6
20260831041748 63 304 4.0 22.0 0.00 0.02 0.02 87 1009.6
20260831041241 63 155 4.0 12.0 0.00 0.02 0.02 87 1009.6
20260831040239 63 339 4.0 14.0 0.00 0.02 0.02 87 1009.6
20260831035743 63 355 4.0 11.0 0.00 0.02 0.02 88 1009.7
20260831035234 63 293 4.0 9.0 0.00 0.02 0.02 88 1009.7
20260831034732 63 221 5.0 20.0 0.00 0.02 0.02 88 1009.7
20260831034231 63 158 4.0 20.0 0.00 0.02 0.02 88 1009.8
20260831033734 63 125 4.0 14.0 0.00 0.02 0.02 88 1009.8
20260831031735 63 189 2.0 7.0 0.00 0.02 0.02 89 1009.9
20260831031231 63 353 2.0 7.0 0.00 0.02 0.02 89 1009.9
20260831030231 63 132 4.0 7.0 0.00 0.02 0.02 89 1010.0
20260831025736 63 138 4.0 18.0 0.00 0.02 0.02 89 1010.0
20260831025231 63 228 4.0 18.0 0.00 0.02 0.02 89 1010.0
20260831024735 63 153 4.0 12.0 0.00 0.02 0.02 89 1009.9
20260831024231 63 283 2.0 7.0 0.00 0.02 0.02 89 1009.9
20260831023731 63 206 2.0 14.0 0.00 0.02 0.02 89 1009.8
20260831023229 63 241 4.0 14.0 0.00 0.02 0.02 89 1009.9
20260831022732 63 289 4.0 14.0 0.00 0.02 0.02 90 1009.9
20260831022223 63 303 4.0 14.0 0.00 0.02 0.02 90 1010.0
20260831021723 63 175 4.0 11.0 0.00 0.02 0.02 90 1010.0
20260831021217 63 304 4.0 11.0 0.00 0.02 0.02 90 1009.8
20260831015718 62 141 2.0 7.0 0.00 0.02 0.02 90 1009.9
20260831015216 62 169 2.0 7.0 0.00 0.02 0.02 90 1009.9
20260831014720 62 169 2.0 9.0 0.00 0.02 0.02 90 1009.9
20260831014213 62 177 2.0 9.0 0.00 0.02 0.02 90 1009.9
20260831013718 62 193 2.0 7.0 0.00 0.02 0.02 89 1010.0
20260831012711 62 232 2.0 7.0 0.00 0.02 0.02 89 1009.8
20260831011713 63 192 2.0 7.0 0.00 0.02 0.02 90 1010.1
20260831011209 63 230 2.0 5.0 0.00 0.02 0.02 90 1010.0
20260831010711 63 227 0.0 4.0 0.01 0.02 0.02 90 1010.1
20260831010204 63 226 0.0 2.0 0.01 0.02 0.02 90 1010.1
20260831005706 64 297 2.0 7.0 0.02 0.02 0.02 90 1010.2
20260831005205 64 297 4.0 14.0 0.02 0.02 0.02 90 1010.2
20260831004204 64 293 2.0 7.0 0.02 0.02 0.02 90 1010.2
20260831003152 64 256 2.0 12.0 0.02 0.02 0.02 90 1010.0
20260831002651 64 264 4.0 12.0 0.02 0.02 0.02 90 1010.2
20260831002144 65 301 4.0 9.0 0.02 0.02 0.02 90 1010.2
20260831001146 65 282 4.0 12.0 0.02 0.02 0.01 89 1010.2
20260831000641 65 282 4.0 14.0 0.01 0.02 0.01 89 1010.2
20260831000139 65 319 4.0 14.0 0.01 0.02 0.01 90 1010.1
20260830235137 64 156 2.0 5.0 0.00 0.01 0.00 90 1009.9
20260830234636 64 156 2.0 7.0 0.00 0.01 0.00 90 1010.0
20260830234136 64 154 2.0 7.0 0.00 0.01 0.00 90 1010.0
20260830233636 64 153 2.0 7.0 0.00 0.01 0.00 91 1010.0
20260830233133 64 172 2.0 7.0 0.00 0.01 0.00 91 1010.1
20260830232633 64 178 2.0 9.0 0.00 0.01 0.00 91 1010.0
20260830232134 64 178 2.0 9.0 0.00 0.01 0.00 91 1009.8
20260830231633 64 175 0.0 5.0 0.00 0.01 0.00 91 1010.0
20260830231133 64 168 2.0 5.0 0.00 0.01 0.00 91 1010.0
20260830230635 64 168 2.0 5.0 0.00 0.01 0.00 91 1010.2
20260830225632 64 156 0.0 5.0 0.00 0.01 0.00 91 1010.0
20260830225132 64 153 0.0 0.0 0.00 0.01 0.00 91 1010.1
20260830224632 64 153 0.0 0.0 0.00 0.01 0.00 91 1010.2
20260830224105 64 153 0.0 0.0 0.00 0.01 0.00 91 1010.3
20260830223106 64 153 0.0 0.0 0.00 0.01 0.00 90 1010.2
20260830222102 64 153 0.0 0.0 0.00 0.01 0.00 90 1010.2
20260830221048 64 153 0.0 0.0 0.00 0.01 0.00 89 1010.3
20260830220547 64 153 0.0 0.0 0.00 0.01 0.00 90 1010.3
20260830220040 65 153 0.0 0.0 0.00 0.01 0.00 90 1010.3
20260830215534 65 153 0.0 0.0 0.00 0.01 0.01 89 1010.3
20260830215035 65 153 0.0 2.0 0.00 0.01 0.01 89 1010.3
20260830214532 65 153 0.0 2.0 0.00 0.01 0.01 89 1010.3
20260830214033 65 153 0.0 2.0 0.00 0.01 0.01 89 1010.4
20260830213528 65 153 0.0 0.0 0.00 0.01 0.01 89 1010.4
20260830213030 65 153 0.0 0.0 0.00 0.01 0.01 89 1010.5
20260830212521 65 153 0.0 0.0 0.00 0.01 0.01 89 1010.6
20260830212018 65 153 0.0 0.0 0.00 0.01 0.01 89 1010.6
20260830211506 65 153 0.0 0.0 0.00 0.01 0.01 89 1010.6
20260830211008 65 153 0.0 2.0 0.00 0.01 0.01 89 1010.5
20260830210004 65 153 2.0 7.0 0.00 0.01 0.01 89 1010.6
20260830205450 65 141 2.0 5.0 0.00 0.01 0.01 89 1010.6
20260830204946 65 132 4.0 12.0 0.00 0.01 0.01 89 1010.6
20260830203940 65 178 0.0 2.0 0.00 0.01 0.01 88 1010.7
20260830203434 65 178 0.0 2.0 0.00 0.01 0.01 88 1010.7
20260830202934 65 178 0.0 0.0 0.00 0.01 0.01 88 1010.6
20260830202432 65 178 0.0 2.0 0.00 0.01 0.01 88 1010.6
20260830201930 65 178 0.0 2.0 0.00 0.02 0.01 88 1010.6
20260830200931 66 178 0.0 2.0 0.00 0.02 0.01 88 1010.7
20260830200434 66 178 0.0 2.0 0.00 0.02 0.01 88 1010.8
20260830194937 66 178 0.0 4.0 0.00 0.02 0.01 87 1010.8
20260830194432 66 178 0.0 4.0 0.00 0.02 0.01 87 1010.9
20260830193933 66 178 0.0 5.0 0.00 0.02 0.01 87 1011.0
20260830193423 66 178 2.0 5.0 0.00 0.02 0.01 87 1010.9
20260830192920 66 178 2.0 5.0 0.00 0.02 0.01 86 1011.0
20260830192422 66 178 2.0 7.0 0.00 0.02 0.01 86 1011.1
20260830191922 66 178 2.0 7.0 0.00 0.02 0.01 86 1011.1
20260830191418 66 179 4.0 11.0 0.00 0.02 0.01 86 1011.1
20260830190916 66 214 2.0 11.0 0.00 0.02 0.01 86 1011.1
20260830185918 67 189 2.0 9.0 0.00 0.02 0.01 86 1011.2
20260830184916 67 195 2.0 7.0 0.01 0.02 0.01 86 1011.1
20260830184417 67 195 4.0 7.0 0.01 0.02 0.01 86 1011.1
20260830183916 67 195 2.0 7.0 0.01 0.02 0.01 86 1011.1
20260830183416 67 152 2.0 7.0 0.01 0.02 0.01 86 1011.1
20260830182912 67 141 2.0 5.0 0.01 0.02 0.01 85 1011.2
20260830182412 67 140 2.0 5.0 0.01 0.02 0.01 85 1011.3
20260830181911 68 136 2.0 5.0 0.01 0.02 0.01 84 1011.3
20260830181409 68 134 2.0 5.0 0.01 0.02 0.01 84 1011.2
20260830180907 68 1 2.0 9.0 0.01 0.02 0.01 83 1011.4
20260830180408 69 142 4.0 9.0 0.01 0.02 0.01 81 1011.4
20260830175910 69 188 4.0 7.0 0.01 0.02 0.01 80 1011.5
20260830174908 71 155 2.0 14.0 0.00 0.01 0.00 75 1011.4
20260830174406 71 174 2.0 7.0 0.00 0.01 0.00 73 1011.5
20260830173907 72 172 2.0 5.0 0.00 0.01 0.00 72 1011.3
20260830173407 72 169 2.0 5.0 0.00 0.01 0.00 72 1011.3
20260830172904 72 168 2.0 4.0 0.00 0.01 0.00 71 1011.3
20260830171902 72 168 0.0 5.0 0.00 0.01 0.00 71 1011.3
20260830171408 72 168 0.0 4.0 0.00 0.01 0.00 71 1011.3
20260830170404 73 168 2.0 7.0 0.00 0.01 0.00 70 1011.4
20260830165902 73 247 2.0 7.0 0.00 0.01 0.00 70 1011.6
20260830164904 73 201 4.0 9.0 0.00 0.01 0.00 69 1011.7
20260830164402 73 210 2.0 11.0 0.00 0.01 0.00 69 1011.6
20260830163904 73 203 2.0 11.0 0.00 0.01 0.00 69 1011.6
20260830163404 73 230 2.0 7.0 0.00 0.01 0.00 69 1011.6
20260830162859 73 179 4.0 7.0 0.00 0.01 0.00 69 1011.7
20260830162354 73 175 4.0 12.0 0.00 0.01 0.00 68 1011.7
20260830161854 73 267 4.0 12.0 0.00 0.01 0.00 68 1011.7
20260830161353 73 185 4.0 7.0 0.00 0.01 0.00 68 1011.8
20260830160853 73 178 4.0 7.0 0.00 0.01 0.00 68 1011.7
20260830160352 73 160 4.0 9.0 0.00 0.01 0.00 67 1011.7
20260830155849 73 231 4.0 11.0 0.00 0.01 0.00 67 1011.8
20260830155350 73 135 4.0 11.0 0.00 0.01 0.00 67 1011.8
20260830154848 73 284 4.0 11.0 0.00 0.01 0.00 66 1011.9
20260830154349 73 285 4.0 12.0 0.00 0.01 0.00 66 1011.8
20260830153847 74 168 4.0 12.0 0.00 0.02 0.00 66 1011.9
20260830153346 74 284 4.0 14.0 0.00 0.02 0.00 66 1011.8
20260830152848 74 299 5.0 14.0 0.00 0.02 0.00 64 1011.9
20260830152345 74 346 4.0 12.0 0.00 0.02 0.00 64 1011.9
20260830151845 75 172 4.0 12.0 0.00 0.05 0.00 64 1011.9
20260830151344 75 220 4.0 9.0 0.00 0.06 0.00 64 1011.9
20260830150847 75 295 4.0 14.0 0.00 0.06 0.00 64 1012.0
20260830150340 74 154 5.0 14.0 0.00 0.07 0.00 65 1012.1
20260830145840 74 260 5.0 18.0 0.00 0.08 0.00 65 1012.0